Other Public Products
Issued by NWS Grand Forks, ND

Home | Current Version | Previous Version | Graphics & Text | Print | Product List | Glossary On
Versions: 1 2 3 4 5 6 7 8 9 10 11 12 13 14 15 16 17 18 19 20 21 22 23 24 25 26 27 28 29 30 31 32 33 34 35 36 37 38 39 40 41 42 43 44 45 46 47 48 49 50
000
FPUS83 KFGF 110110
OPUFGF
PRAIRIE TO PINES WEATHER ROUNDUP
NATIONAL WEATHER SERVICE EASTERN NORTH DAKOTA/GRAND FORKS ND
700 PM CST WED FEB 10 2016

 **SATELLITE DATA USED TO AUGMENT SKY COVER AT AUTOMATED STATIONS**
 *****  WEATHER ACROSS EASTERN NORTH DAKOTA  *****

CITY           SKY/WX    TMP DP  RH WIND       PRES   REMARKS
GRAND FORKS    CLOUDY    10   1  67 N9        30.29R WCI  -3
GRAND FORKS AF CLOUDY     7   0  71 NE6       30.28R WCI  -3
GRAND CITY NWS NOT AVBL
BUXTON         NOT AVBL
DEVILS LAKE    FLURRIES   6   1  80 E8        30.23S WCI  -7
FARGO          CLOUDY    11   2  67 N10       30.26R WCI  -3
WAHPETON ARPT  CLOUDY    14   1  57 N6        30.24R WCI   5
$$

 *****  WEATHER ACROSS CENTRAL AND WESTERN NORTH DAKOTA  *****

CITY           SKY/WX    TMP DP  RH WIND       PRES   REMARKS
JAMESTOWN      CLOUDY     8   3  80 E9        30.20R WCI  -5
BISMARCK       CLOUDY    20  12  71 E7        30.18R WCI  11
MINOT          CLOUDY    14   5  67 NE6       30.19R WCI   5
MINOT AFB      NOT AVBL
GARRISON         N/A     15  10  80 NE6       30.16R WCI   6
WILLISTON      CLOUDY    28  25  88 NE7       30.15R WCI  21
DICKINSON      CLOUDY    29  25  85 N9        30.10R WCI  20
HETTINGER      CLOUDY    32  26  78 N12       30.10R WCI  23
$$

 *****  OTHER OBSERVATIONS NORTHEAST NORTH DAKOTA  *****

CITY           SKY/WX    TMP DP  RH WIND       PRES   REMARKS
WALHALLA       FAIR       5   0  78 NE3       30.30S
LANGDON        CLOUDY     5   0  78 E6        30.22R WCI  -6
CAVALIER       MOCLDY     5   0  78 NE7       30.30S WCI  -7
GRAFTON        CLOUDY     7   0  72 NE10      30.32R WCI  -8
CANDO          NOT AVBL
FORT TOTTEN      N/A      6   1  82 E6        29.95S WCI  -5
ROLLA          CLOUDY     3   0  85 S5        30.20S WCI  -6
RUGBY          CLOUDY     7   3  85 E9        30.22S WCI  -7
 ***** THE ABOVE OBSERVATIONS ARE NON NWS ARE NOT QUALITY
        CONTROLLED AND MAY MIS-REPORT RAIN FOR SNOW...
$$

 *****  OTHER OBSERVATIONS SOUTHEAST NORTH DAKOTA *****

CITY           SKY/WX    TMP DP  RH WIND       PRES   REMARKS
COOPERSTOWN    NOT AVBL
VALLEY CITY    CLOUDY     7   1  78 NE8       30.24R WCI  -6
OAKES          CLOUDY    10   7  85 NE9       30.21R WCI  -2
GWINNER        MOCLDY    12   9  85 NE7       30.22R WCI   2
BUFFALO        NOT AVBL
WYNDMERE         N/A     10   5  79 N5          N/A  WCI   2
 ***** THE ABOVE OBSERVATIONS ARE NON NWS ARE NOT QUALITY
       CONTROLLED AND MAY MIS-REPORT RAIN FOR SNOW...
$$

  *****  WEATHER ACROSS NORTHERN MINNESOTA  *****

CITY           SKY/WX    TMP DP  RH WIND       PRES   REMARKS
FLAG ISLAND    CLEAR     -8 -13  77 SW3       30.25R
WARROAD        CLOUDY    -8 -13  77 CALM      30.26S
ROSEAU         CLOUDY    -4 -11  71 CALM      30.28S
HALLOCK        CLEAR      3  -4  72 N7        30.30R WCI  -9
THF RVR FALLS  CLOUDY     7  -6  56 N6        30.26R WCI  -3
HALSTAD        NOT AVBL
FOSSTON        CLOUDY     1  -6  71 NE3       30.23S
BAUDETTE       CLOUDY   -10 -18  67 CALM      30.25R
WASKISH        CLOUDY     0  -9  65 N3        30.24R
CROOKSTON      PTCLDY     9   0  66 N7        30.29R WCI  -3
$$
  *****  WEATHER ACROSS CENTRAL AND WEST MINNESOTA  *****

CITY           SKY/WX    TMP DP  RH WIND       PRES   REMARKS
BEMIDJI        CLOUDY     2  -7  67 N5        30.20R WCI  -8
PARK RAPIDS    CLOUDY     9  -5  53 N7        30.18R WCI  -2
WADENA         CLOUDY     9  -2  61 NE5       30.19R WCI   0
DETROIT LAKES  CLOUDY    10   3  72 N6        30.21R WCI   1
MOORHEAD       CLOUDY    10   0  61 N9        30.26R WCI  -2
FERGUS FALLS   CLOUDY    12   0  57 NE5       30.25R WCI   4
ELBOW LAKE     CLOUDY    12   2  63 N7        30.21R WCI   2
MORRIS MN      CLOUDY    12   3  67 NW3       30.20R
STAPLES        CLOUDY     9  -6  52 N6        30.20R WCI  -1
WHEATON        CLOUDY    12   7  79 W3        30.25R
$$
  *****  WEATHER ELSEWHERE ACROSS MINNESOTA  *****

CITY           SKY/WX    TMP DP  RH WIND       PRES   REMARKS
DULUTH         PTCLDY     3  -9  57 NW9       30.14R WCI -12
INTRNTL FALLS  CLOUDY   -12 -17  78 CALM      30.22R
ELY            CLEAR     -9 -13  84 NW5       30.16R WCI -21
CLOQUET        CLEAR      5 -11  47 NW8       30.16R WCI  -8
BRAINERD       CLOUDY     8  -5  55 NW7       30.20R WCI  -3
HIBBING        CLEAR     -6 -11  79 NW5       30.17R WCI -17
ALEXANDRIA     CLOUDY    11  -2  56 N8        30.18R WCI  -1
SAINT CLOUD    CLOUDY    11  -3  53 N7        30.20R WCI   0
MINNEAPOLIS    CLOUDY    11  -3  53 NE6       30.21R WCI   1
$$

  *****  WEATHER ACROSS SOUTH DAKOTA  *****

CITY           SKY/WX    TMP DP  RH WIND       PRES   REMARKS
SIOUX FALLS    CLOUDY    15   9  76 E10       30.13R WCI   2
BROOKINGS      FLURRIES  10   6  84 NE7       30.13R WCI  -1
WATERTOWN      CLOUDY    11   4  73 E6        30.15R WCI   1
HURON          CLOUDY    19  13  77 NE9       30.17R WCI   8
SISSETON         N/A     11   6  81 NE5       30.22R WCI   3
ABERDEEN       LGT SNOW  15  10  80 NE9       30.21R WCI   3
MITCHELL       CLOUDY    21  16  81 E10       30.14R WCI  10
PIERRE         CLOUDY    29  24  82 NE14      30.11R WCI  18
MOBRIDGE       CLOUDY    25  18  74 NE8       30.11R WCI  16
RAPID CITY     CLEAR     55  23  28 N12       30.05R
$$

  *****  SOME WEATHER IN NEARBY STATES *****

CITY           SKY/WX    TMP DP  RH WIND       PRES   REMARKS
GLASGOW MT     CLOUDY    32  27  81 CALM      30.14R
GREAT FALLS MT CLOUDY    49  26  41 SW13      30.05S
CHEYENNE WY    CLOUDY    44  16  32 NW15      30.16R
SCOTTSBLUFF NE CLOUDY    42  28  57 NW9       30.08R
OMAHA NE       PTCLDY    26  21  81 NE8       30.05R WCI  18
DES MOINES IA  FLURRIES  19  11  70 E6        30.12R WCI  11
DAVENPORT IA   CLEAR     14   3  61 NW6       30.14R WCI   5
CHICAGO IL     CLOUDY    14   2  58 N12       30.11R WCI   0
EAU CLAIRE WI  CLEAR      6  -5  60 NW3       30.16R
LA CROSSE WI   PTCLDY     6  -3  66 NW6       30.17R WCI  -4
$$

  *****  SOME NATIONAL WEATHER *****

CITY           SKY/WX    TMP DP  RH WIND       PRES   REMARKS
LA GUARDIA NY  PTCLDY    35  16  45 W20       29.72R WCI  24
RALEIGH NC     PTCLDY    30   7  37 NW8       29.99R WCI  22
ATLANTA GA     CLOUDY    36   8  31 NW8       30.12S
NEW ORLEANS LA PTCLDY    51  28  41 S8        30.26F
OKLAHOMA CITY  CLEAR     58  31  35 SW9       29.96S
ALBUQUERQUE NM PTCLDY    58  16  19 E3        30.29S
SALT LAKE CITY CLOUDY    30  27  88 N7        30.46R FOG     WCI  23
LOS ANGELES CA PTCLDY    69  44  40 W12       30.08S
BOISE ID       PTCLDY    37  32  82 NW6       30.42R
SEATTLE WA     MOCLDY    53  47  79 W3        30.27R
$$

*** WEATHER ACROSS MANITOBA...SASKATCHEWAN AND ONTARIO ***
                ***ONTARIO***

CITY           SKY/WX    TMP DP  RH WIND       PRES   REMARKS
GERALDTON      PTCLDY   -11 -17  77 NW5       30.06R WCI -23
THUNDER BAY    CLEAR      0  -9  65 W7        30.16R WCI -13
SIOUX LOOKOUT  CLEAR    -11 -17  77 NW2       30.17R
TORONTO        MOCLDY    16   5  62 NW16      29.78R WCI   0
BIG TROUT LK   PTCLDY   -15 -20  76 W6        30.13S WCI -29
PICKLE LAKE    CRYSTALS  -8 -15  71 W8        30.10S WCI -23
DRYDEN         CLEAR     -4  -9  77 NW6       30.17S WCI -16
KENORA         PTCLDY    -2  -9  71 NW5       30.21R WCI -12
$$
                *** MANITOBA***

CITY           SKY/WX    TMP DP  RH WIND       PRES   REMARKS
BRANDON          N/A      5   0  78 E7        30.26R WCI  -7
DAUPHIN        CLOUDY     3   0  85 W5        30.26F WCI  -6
ISLAND LAKE    PTCLDY   -11 -15  84 W6        30.23F WCI -25
PILOT MOUND      N/A      5   0  78 SE3         N/A
THE PAS        FLURRIES   1  -2  85 N3        30.31S
THOMPSON       CLEAR     -9 -13  84 W2        30.27F
WINNIPEG       PTCLDY     0  -8  71 NW2       30.32R
LYNN LAKE      CLEAR    -15 -20  76 W8        30.29F WCI -32
CHURCHILL      CRYSTALS -22 -29  69 NW23      30.21F WCI -53
GILLAM         CLEAR    -15 -20  76 NW9       30.22F WCI -33
$$
                ***SASKATCHEWAN***

CITY           SKY/WX    TMP DP  RH WIND       PRES   REMARKS
ESTEVAN        FLURRIES  18  14  86 E7        30.17R WCI   8
KINDERSLEY     CLOUDY    27  25  93 E13       30.12F WCI  16
LLOYDMINSTER   CLOUDY    19  14  79 E13       30.16F WCI   7
PRINCE ALBERT  FLURRIES  10   5  79 N9        30.28R WCI  -2
REGINA         CLOUDY    18  12  79 N8        30.18R WCI   7
YORKTON        FLURRIES  10   7  85 S3        30.20R
N. BATTLEFORD  CLOUDY    19  14  79 NE9       30.23S WCC1F1C2F2C3F3C4F4C5F5C6F6C7F7C8F8C9F9CaFaCbFbCcFcCdFdCe!



USA.gov is the U.S. government's official web portal to all federal, state and local government web resources and services.